Location: ????
(55.2778°N, 39.2433°E)
Time: 13:57:16
(UTC+00:00)

RESURS DK-1 - Pass Details

Date: 14 April 2024
Orbit: 543 x 547 km, 69.9° (Epoch: 24 May)

Event Time Altitude Azimuth Distance (km) Brightness Sun altitude
Exits shadow 01:03:52 14° 217° (SW) 1,565 4.0 -10.7°
Maximum altitude 01:07:18 84° 305° (NW) 554 2.3 -10.3°
Drops below altitude 10° 01:11:22 10° 35° (NE) 1,822 6.2 -9.8°
Sets 01:13:34 0° 36° (NE) 2,719 7.3 -9.5°
